Hourly Data Report for October 12, 2015

All times are specified in Local Standard Time (LST). Add 1 hour to adjust for Daylight Saving Time where and when it is observed.

PETAWAWA AWOS 2
ONTARIO

45°57'00.000" N
77°19'00.000" W
130.10 m
6106396
71625
YWA

Download Data

Hourly Data (October 2015)
Hourly Data Report for October 12, 2015
Temp Definition
°C
Dew Point Temp Definition
°C
Rel Hum Definition
%
Wind Dir Definition
10's deg

Wind Spd Definition
km/h
Visibility Definition
km
Stn Press Definition
kPa
Hmdx Definition


Wind Chill Definition


Weather Definition


TIME
00:00 12.9 11.6 92 14 4 14.5 98.76     LegendNANA
01:00 12.5 11.3 92 13 9 14.5 98.74     LegendNANA
02:00 12.2 11.1 93 13 7 14.5 98.74     LegendNANA
03:00 12.3 11.0 92 14 9 14.5 98.73     LegendNANA
04:00 12.1 11.1 94 14 6 14.5 98.73     LegendNANA
05:00 11.9 10.8 93 14 9 14.5 98.75     LegendNANA
06:00 11.8 10.9 94 13 7 14.5 98.76     LegendNANA
07:00 11.7 10.7 94 14 11 14.5 98.77     LegendNANA
08:00 13.2 11.3 88 13 11 14.5 98.78     LegendNANA
09:00 14.8 10.9 78 13 15 14.5 98.77     Drizzle
10:00 17.2 11.3 68 18 13 14.5 98.73     LegendNANA
11:00 21.0 11.0 53 21 11 14.5 98.68     LegendNANA
12:00 21.4 11.3 52 12 15 14.5 98.58     LegendNANA
13:00 24.7 11.0 42 18 9 14.5 98.48 26   LegendNANA
14:00 25.1 10.5 40 18 20 14.5 98.38 27   LegendNANA
15:00 24.7 9.8 39 19 17 14.5 98.32 26   LegendNANA
16:00 24.0 8.4 37 19 20 14.5 98.29 25   LegendNANA
17:00 22.2 8.4 41 16 9 14.5 98.32     LegendNANA
18:00 20.5 7.5 43 19 15 14.5 98.35     LegendNANA
19:00 19.6 7.2 44 19 9 14.5 98.36     LegendNANA
20:00 17.5 9.8 61 12 9 14.5 98.34     LegendNANA
21:00 16.9 10.1 64 12 9 14.5 98.30     LegendNANA
22:00 16.4 10.6 68 10 9 14.5 98.26     LegendNANA
23:00 16.7 10.1 65 13 13 14.5 98.20     LegendNANA

Notes on Data Quality.

Legend

  • E = Estimated
  • M = Missing
  • NA = Not Available
  • ‡ = Partner data that is not subject to review by the National Climate Archives
Date modified: